Weather History for KOSC - August, 2014

Change the Weather History Date:

Sunday, August 17, 2014

  Actual Average Record
Temperature  
Mean Temperature 60 °F -  
Max Temperature 66 °F 74 °F 89 °F (2015)
Min Temperature 51 °F 55 °F 46 °F (2007)
Degree Days  
Heating Degree Days 6    
Growing Degree Days 10 (Base 50)    
Moisture  
Dew Point 57 °F    
Average Humidity 89    
Maximum Humidity 100    
Minimum Humidity 73    
Precipitation  
Precipitation 0.00 in - - ()
Sea Level Pressure  
Sea Level Pressure 30.01 in    
Wind  
Wind Speed 4 mph (NE)    
Max Wind Speed 10 mph    
Max Gust Speed 18 mph    
Visibility 9 miles    
Events Fog    
Averages and records for this station are not official NWS values.
T = Trace of Precipitation, MM = Missing Value Source: NWS Daily Summary

Daily Weather History Graph

Daily Weather History Graph

Search for Another Location

Airport or City:

Trip Planner

Search our weather history database for the weather conditions in past years. The results will help you decide how hot, cold, wet, or windy it might be!

Date:

Astronomy

Aug. 17, 2014 Rise Set
Actual Time 6:38 AM EDT 8:35 PM EDT
Civil Twilight 6:07 AM EDT 9:06 PM EDT
Nautical Twilight 5:28 AM EDT 9:45 PM EDT
Astronomical Twilight 4:46 AM EDT 10:26 PM EDT
Moon 12:02 AM EDT (8/17) 2:42 PM EDT (8/17)
Length of Visible Light 14h 59m
Length of Day
13h 56m
Waning Gibbous, 48% of the Moon is Illuminated
Aug 17
Waning Gibbous
Aug 25
New
Sep 2
First Quarter
Sep 8
Full
Sep 15
Last Quarter

Hourly Weather History & Observations

Time (EDT) Temp. Dew Point Humidity Pressure Visibility Wind Dir Wind Speed Gust Speed Precip Events Conditions
12:15 AM 60.8 °F 59.0 °F 94% 29.93 in 10.0 mi NW 3.5 mph - N/A   Mostly Cloudy
12:35 AM 59.0 °F 57.2 °F 94% 29.93 in 10.0 mi WNW 3.5 mph - N/A   Scattered Clouds
12:55 AM 59.0 °F 59.0 °F 100% 29.93 in 10.0 mi Calm Calm - N/A   Clear
1:15 AM 57.2 °F 55.4 °F 94% 29.93 in 10.0 mi NW 4.6 mph - N/A   Clear
1:35 AM 57.2 °F 55.4 °F 94% 29.93 in 10.0 mi Calm Calm - N/A   Clear
1:55 AM 57.2 °F 57.2 °F 100% 29.93 in 10.0 mi Calm Calm - N/A   Clear
2:15 AM 55.4 °F 55.4 °F 100% 29.93 in 10.0 mi NW 3.5 mph - N/A   Clear
2:35 AM 55.4 °F 55.4 °F 100% 29.94 in 10.0 mi Calm Calm - N/A   Clear
2:55 AM 55.4 °F 55.4 °F 100% 29.94 in 10.0 mi Calm Calm - N/A   Clear
3:15 AM 57.2 °F 57.2 °F 100% 29.95 in 10.0 mi Calm Calm - N/A   Clear
3:35 AM 57.2 °F 55.4 °F 94% 29.95 in 10.0 mi Calm Calm - N/A   Clear
3:56 AM 53.6 °F 53.6 °F 100% 29.95 in 10.0 mi Calm Calm - N/A   Clear
4:15 AM 55.4 °F 53.6 °F 94% 29.95 in 5.0 mi Calm Calm - N/A   Clear
4:35 AM 53.6 °F 53.6 °F 100% 29.96 in 10.0 mi Calm Calm - N/A   Clear
4:55 AM 53.6 °F 53.6 °F 100% 29.96 in 7.0 mi NNW 3.5 mph - N/A   Clear
5:15 AM 53.6 °F 53.6 °F 100% 29.97 in 10.0 mi NNW 3.5 mph - N/A   Clear
5:37 AM 53.6 °F 53.6 °F 100% 29.97 in 10.0 mi Calm Calm - N/A   Clear
5:55 AM 53.6 °F 53.6 °F 100% 29.98 in 10.0 mi NNW 3.5 mph - N/A   Clear
6:15 AM 53.6 °F 53.6 °F 100% 29.98 in 10.0 mi Calm Calm - N/A   Scattered Clouds
6:35 AM 53.6 °F 53.6 °F 100% 29.99 in 10.0 mi Calm Calm - N/A   Mostly Cloudy
6:55 AM 55.4 °F 55.4 °F 100% 29.99 in 10.0 mi NW 3.5 mph - N/A   Overcast
7:15 AM 55.4 °F 55.4 °F 100% 30.00 in 0.2 mi NW 3.5 mph - N/A Fog Fog
7:36 AM 55.4 °F 55.4 °F 100% 30.01 in 0.2 mi NW 3.5 mph - N/A Fog Fog
7:55 AM 57.2 °F 57.2 °F 100% 30.01 in 0.2 mi NNW 3.5 mph - N/A Fog Fog
8:15 AM 57.2 °F 57.2 °F 100% 30.01 in 0.5 mi North 4.6 mph - N/A Fog Fog
8:35 AM 59.0 °F 59.0 °F 100% 30.02 in 7.0 mi North 3.5 mph - N/A   Overcast
8:55 AM 59.0 °F 59.0 °F 100% 30.02 in 10.0 mi North 5.8 mph - N/A   Overcast
9:17 AM 60.8 °F 60.8 °F 100% 30.02 in 10.0 mi NNE 9.2 mph - N/A   Overcast
9:35 AM 62.6 °F 59.0 °F 88% 30.03 in 10.0 mi NE 9.2 mph - N/A   Overcast
9:56 AM 64.4 °F 59.0 °F 83% 30.03 in 10.0 mi NNE 8.1 mph - N/A   Overcast
10:15 AM 62.6 °F 59.0 °F 88% 30.03 in 10.0 mi NNE 8.1 mph - N/A   Overcast
10:35 AM 62.6 °F 57.2 °F 82% 30.04 in 10.0 mi NE 8.1 mph - N/A   Overcast
10:55 AM 62.6 °F 57.2 °F 82% 30.04 in 10.0 mi NNE 6.9 mph - N/A   Overcast
11:15 AM 62.6 °F 57.2 °F 82% 30.05 in 10.0 mi NE 5.8 mph - N/A   Overcast
11:35 AM 64.4 °F 57.2 °F 77% 30.05 in 10.0 mi ENE 6.9 mph - N/A   Overcast
11:55 AM 64.4 °F 57.2 °F 77% 30.05 in 10.0 mi ENE 6.9 mph - N/A   Overcast
12:15 PM 64.4 °F 57.2 °F 77% 30.05 in 10.0 mi ENE 6.9 mph - N/A   Overcast
12:35 PM 64.4 °F 57.2 °F 77% 30.05 in 10.0 mi ENE 5.8 mph - N/A   Overcast
12:55 PM 64.4 °F 57.2 °F 77% 30.05 in 10.0 mi East 8.1 mph - N/A   Overcast
1:15 PM 66.2 °F 57.2 °F 73% 30.04 in 10.0 mi East 5.8 mph - N/A   Overcast
1:35 PM 66.2 °F 57.2 °F 73% 30.04 in 10.0 mi East 6.9 mph - N/A   Overcast
1:55 PM 66.2 °F 57.2 °F 73% 30.04 in 10.0 mi ENE 5.8 mph - N/A   Overcast
2:15 PM 66.2 °F 57.2 °F 73% 30.04 in 10.0 mi ENE 8.1 mph - N/A   Overcast
2:37 PM 66.2 °F 57.2 °F 73% 30.04 in 10.0 mi East 10.4 mph 18.4 mph N/A   Overcast
2:55 PM 66.2 °F 57.2 °F 73% 30.03 in 10.0 mi ENE 6.9 mph - N/A   Overcast
3:15 PM 66.2 °F 59.0 °F 78% 30.03 in 10.0 mi NE 9.2 mph 18.4 mph N/A   Overcast
3:35 PM 66.2 °F 57.2 °F 73% 30.03 in 10.0 mi East 6.9 mph 17.3 mph N/A   Overcast
3:55 PM 66.2 °F 59.0 °F 78% 30.03 in 10.0 mi ENE 9.2 mph - N/A   Mostly Cloudy
4:15 PM 66.2 °F 59.0 °F 78% 30.02 in 10.0 mi NE 8.1 mph - N/A   Mostly Cloudy
4:35 PM 64.4 °F 59.0 °F 83% 30.02 in 10.0 mi ENE 9.2 mph - N/A   Overcast
4:55 PM 66.2 °F 57.2 °F 73% 30.02 in 10.0 mi NE 8.1 mph 17.3 mph N/A   Overcast
5:15 PM 64.4 °F 57.2 °F 77% 30.02 in 10.0 mi ENE 8.1 mph - N/A   Overcast
5:35 PM 62.6 °F 57.2 °F 82% 30.03 in 10.0 mi East 6.9 mph 17.3 mph N/A   Overcast
5:55 PM 62.6 °F 57.2 °F 82% 30.03 in 10.0 mi ENE 6.9 mph - N/A   Overcast
6:15 PM 62.6 °F 57.2 °F 82% 30.03 in 10.0 mi East 6.9 mph - N/A   Overcast
6:35 PM 62.6 °F 57.2 °F 82% 30.02 in 10.0 mi East 8.1 mph - N/A   Overcast
6:55 PM 62.6 °F 57.2 °F 82% 30.02 in 10.0 mi ENE 6.9 mph - N/A   Overcast
7:15 PM 60.8 °F 57.2 °F 88% 30.02 in 10.0 mi ENE 6.9 mph - N/A   Overcast
7:35 PM 60.8 °F 57.2 °F 88% 30.02 in 10.0 mi NE 4.6 mph - N/A   Overcast
7:55 PM 60.8 °F 57.2 °F 88% 30.02 in 10.0 mi NE 4.6 mph - N/A   Overcast
8:15 PM 60.8 °F 57.2 °F 88% 30.01 in 10.0 mi ENE 10.4 mph - N/A   Mostly Cloudy
8:35 PM 59.0 °F 57.2 °F 94% 30.01 in 10.0 mi ENE 5.8 mph - N/A   Scattered Clouds
8:55 PM 59.0 °F 57.2 °F 94% 30.02 in 10.0 mi NE 3.5 mph - N/A   Clear
9:15 PM 59.0 °F 57.2 °F 94% 30.02 in 10.0 mi ENE 3.5 mph - N/A   Clear
9:35 PM 60.8 °F 57.2 °F 88% 30.02 in 10.0 mi Calm Calm - N/A   Mostly Cloudy
9:55 PM 59.0 °F 57.2 °F 94% 30.03 in 10.0 mi Calm Calm - N/A   Scattered Clouds
10:15 PM 57.2 °F 55.4 °F 94% 30.03 in 10.0 mi Calm Calm - N/A   Clear
10:35 PM 57.2 °F 55.4 °F 94% 30.03 in 7.0 mi Calm Calm - N/A   Clear
10:55 PM 53.6 °F 53.6 °F 100% 30.03 in 10.0 mi Calm Calm - N/A   Clear
11:15 PM 53.6 °F 53.6 °F 100% 30.03 in 10.0 mi Calm Calm - N/A   Clear
11:35 PM 53.6 °F 51.8 °F 94% 30.03 in 10.0 mi Calm Calm - N/A   Clear
11:55 PM 51.8 °F 51.8 °F 100% 30.01 in 10.0 mi Calm Calm - N/A   Clear